Total_Precipitation_Accumulation
1.46 1.64 1.60 1.50 1.52 1.58 1.70 1.86 1.97 1.80 1.64 1.54 1.40 1.28 1.35 1.48 1.52 1.33 1.27 1.39 1.26 1.06 0.97 0.93 0.93 0.97 1.03 1.07 1.11 1.20 1.26 1.34 1.44 1.60 1.89 2.26 2.60 2.95
1.66 1.78 1.75 1.71 1.70 1.63 1.70 1.80 1.96 2.00 1.75 1.46 1.41 1.33 1.31 1.17 1.29 1.16 1.13 1.28 1.18 1.09 1.04 0.99 0.95 0.96 0.98 0.99 0.96 0.95 0.98 0.99 1.00 1.05 1.16 1.31 1.51 1.78
1.75 1.89 1.94 2.07 2.05 1.87 1.83 1.80 1.84 1.96 1.76 1.48 1.44 1.39 1.25 1.13 1.13 1.07 1.01 1.01 0.99 1.07 0.99 0.93 0.85 0.82 0.85 0.88 0.88 0.86 0.83 0.81 0.83 0.87 0.93 1.02 1.08 1.16
1.83 2.07 2.10 2.09 2.02 1.91 1.93 1.86 1.82 1.95 1.86 1.66 1.62 1.52 1.41 1.25 1.17 1.12 0.98 0.94 0.98 1.17 1.09 0.96 0.87 0.83 0.80 0.76 0.75 0.75 0.78 0.79 0.80 0.81 0.85 0.89 0.92 0.94
1.87 1.96 1.97 2.04 1.96 1.92 1.85 1.81 1.77 1.91 2.03 1.87 1.83 1.80 1.67 1.48 1.37 1.24 1.11 1.10 0.95 0.98 1.00 0.93 0.88 0.83 0.78 0.75 0.75 0.74 0.71 0.70 0.71 0.74 0.77 0.84 0.86 0.87
1.84 1.92 1.97 1.98 2.03 2.12 2.01 1.97 2.04 2.11 2.16 2.10 2.01 2.08 2.01 1.79 1.61 1.42 1.26 1.17 1.08 0.90 0.95 0.96 0.93 0.84 0.76 0.69 0.66 0.65 0.68 0.68 0.67 0.69 0.69 0.72 0.80 0.89
1.81 1.79 1.86 2.05 2.14 2.16 2.00 2.02 2.13 2.12 2.07 2.09 2.04 2.13 2.14 2.00 1.71 1.45 1.35 1.31 1.23 1.07 1.00 0.88 0.87 0.85 0.83 0.82 0.79 0.76 0.70 0.70 0.70 0.70 0.71 0.75 0.81 0.93
1.78 1.71 1.64 1.67 1.75 1.85 1.83 1.77 1.81 1.87 1.92 1.94 1.96 2.02 2.07 1.98 1.79 1.60 1.48 1.38 1.32 1.28 1.30 1.24 1.10 1.10 0.98 0.86 0.90 0.85 0.80 0.77 0.76 0.76 0.76 0.77 0.81 0.93
1.48 1.45 1.27 1.18 1.39 1.47 1.60 1.60 1.50 1.47 1.49 1.63 1.75 1.80 1.94 1.99 1.94 1.75 1.69 1.59 1.43 1.39 1.42 1.42 1.32 1.19 1.00 0.95 1.03 0.90 0.86 0.84 0.84 0.85 0.83 0.79 0.75 0.76
1.24 1.20 1.20 1.17 1.22 1.31 1.38 1.39 1.35 1.31 1.29 1.30 1.40 1.60 1.77 1.93 1.95 1.87 1.83 1.71 1.52 1.41 1.41 1.41 1.31 1.21 1.06 1.00 1.06 0.96 0.89 0.86 0.85 0.90 0.99 0.97 0.82 0.75
1.27 1.32 1.33 1.22 1.27 1.23 1.21 1.22 1.23 1.29 1.28 1.27 1.28 1.46 1.64 1.76 1.90 1.87 1.81 1.72 1.55 1.42 1.37 1.32 1.27 1.28 1.20 1.07 0.97 0.92 0.78 0.71 0.69 0.70 0.84 1.08 1.16 0.98
1.45 1.39 1.33 1.18 1.13 1.07 1.07 1.13 1.10 1.11 1.20 1.23 1.24 1.33 1.45 1.57 1.73 1.70 1.63 1.65 1.51 1.38 1.24 1.23 1.20 1.23 1.25 1.08 0.91 0.80 0.72 0.69 0.66 0.68 0.82 1.14 1.30 1.14
1.49 1.43 1.36 1.23 1.06 1.00 0.94 0.95 0.97 1.02 1.09 1.15 1.25 1.34 1.47 1.59 1.60 1.59 1.59 1.51 1.45 1.26 1.05 1.12 1.12 1.06 1.03 0.95 0.84 0.77 0.70 0.65 0.62 0.65 0.74 0.99 1.24 1.19
1.61 1.54 1.47 1.32 1.09 1.00 0.89 0.88 0.89 0.88 0.99 1.09 1.14 1.23 1.35 1.50 1.60 1.66 1.66 1.54 1.37 1.23 1.15 1.15 1.12 1.06 0.98 0.88 0.81 0.74 0.74 0.70 0.66 0.65 0.66 0.81 0.93 1.18
1.58 1.65 1.50 1.34 1.17 1.04 1.01 0.97 0.89 0.82 0.95 1.07 1.06 1.09 1.17 1.31 1.58 1.78 1.87 1.80 1.52 1.24 1.12 1.06 1.00 0.98 0.98 0.85 0.72 0.67 0.69 0.73 0.69 0.68 0.68 0.72 0.84 1.04
1.58 1.62 1.48 1.36 1.19 1.06 1.04 0.96 0.85 0.82 0.88 0.98 1.05 1.11 1.21 1.31 1.45 1.62 1.81 1.84 1.66 1.28 1.09 1.02 0.97 0.99 0.95 0.85 0.75 0.66 0.61 0.67 0.69 0.72 0.80 0.84 0.94 1.06
1.62 1.70 1.63 1.50 1.39 1.25 1.16 1.11 1.08 1.03 0.96 0.97 1.09 1.14 1.19 1.20 1.26 1.39 1.61 1.70 1.56 1.21 1.01 0.99 1.04 1.07 1.05 1.04 0.93 0.74 0.66 0.63 0.66 0.77 0.90 0.92 0.94 0.96
1.42 1.60 1.59 1.48 1.40 1.36 1.32 1.25 1.20 1.12 1.06 1.05 1.08 1.12 1.13 1.15 1.20 1.29 1.40 1.49 1.45 1.26 1.09 0.98 1.07 1.16 1.13 1.05 0.90 0.77 0.70 0.68 0.69 0.81 0.87 0.86 0.83 0.83
1.12 1.31 1.32 1.29 1.27 1.29 1.26 1.16 1.08 1.09 1.12 1.09 1.04 1.09 1.14 1.16 1.19 1.26 1.31 1.41 1.45 1.41 1.27 1.13 1.10 1.11 1.01 0.83 0.72 0.68 0.69 0.72 0.77 0.81 0.83 0.81 0.75 0.72
0.93 1.08 1.12 1.14 1.17 1.23 1.22 1.21 1.17 1.18 1.20 1.16 1.14 1.16 1.24 1.27 1.26 1.28 1.35 1.37 1.42 1.44 1.40 1.24 1.09 1.02 0.93 0.81 0.73 0.64 0.60 0.66 0.75 0.78 0.77 0.80 0.77 0.75
0.97 1.03 1.08 1.10 1.14 1.22 1.24 1.24 1.23 1.25 1.24 1.25 1.25 1.26 1.34 1.41 1.32 1.26 1.30 1.36 1.33 1.36 1.32 1.18 1.07 1.11 1.14 1.14 0.94 0.70 0.63 0.62 0.66 0.73 0.79 0.86 0.84 0.83
1.04 1.05 1.11 1.14 1.15 1.16 1.19 1.19 1.21 1.25 1.25 1.25 1.30 1.33 1.34 1.35 1.27 1.24 1.25 1.30 1.25 1.21 1.23 1.29 1.39 1.41 1.31 1.19 0.97 0.81 0.77 0.74 0.73 0.71 0.69 0.72 0.72 0.70
1.06 1.07 1.09 1.07 1.07 1.10 1.13 1.15 1.22 1.25 1.23 1.23 1.28 1.33 1.32 1.29 1.24 1.24 1.23 1.23 1.27 1.28 1.35 1.43 1.51 1.46 1.27 1.15 1.02 0.93 0.90 0.88 0.84 0.80 0.73 0.65 0.57 0.51